Regional Weather Roundup
Issued by NWS Little Rock, AR

Home | Current Version | Previous Version | Graphics & Text | Print | Product List | Glossary On
Versions: 1 2 3 4 5 6 7 8 9 10 11 12 13 14 15 16 17 18 19 20 21 22 23 24 25 26 27 28 29 30 31 32 33 34 35 36 37 38 39 40 41 42 43 44 45 46 47 48 49 50
000
ASUS44 KLZK 220012
RWRLZK

WEATHER ROUNDUP FOR ARKANSAS
NATIONAL WEATHER SERVICE LITTLE ROCK AR
600 PM CST WED FEB 21 2018

NOTE: "FAIR" INDICATES FEW OR NO CLOUDS BELOW 12,000 FEET WITH NO
SIGNIFICANT WEATHER AND/OR OBSTRUCTIONS TO VISIBILITY.

ARZ001-003-010-029-220100-
NORTHWEST ARKANSAS

CITY           SKY/WX    TMP DP  RH WIND       PRES   REMARKS
FAYETTEVILLE   FRZ RAIN  31  31 100 NE7       30.40R FOG     WCI  24
6HR MIN TEMP:  30; 6HR MAX TEMP:  32; 6HR PCP:  0.03;

FORT SMITH     LGT RAIN  38  36  92 N5        30.39R
6HR MIN TEMP:  38; 6HR MAX TEMP:  43; 6HR PCP:  0.10;

HARRISON       FRZ RAIN  30  30 100 N5        30.40R FOG     WCI  25
6HR MIN TEMP:  29; 6HR MAX TEMP:  32;

BENTONVILLE    CLOUDY    31  29  92 E9        30.41S WCI  23
6HR MIN TEMP:  28; 6HR MAX TEMP:  31; 6HR PCP:  0.01;

ROGERS         LGT SNOW  30  30 100 NE8       30.39F FOG     WCI  23
SILOAM SPGS    FLURRIES  31  30  96 E8        30.40R WCI  23
6HR MIN TEMP:  29; 6HR MAX TEMP:  31;

HIGHFILL       CLOUDY    31  31 100 E7        30.39F FOG     WCI  24
6HR MIN TEMP:  29; 6HR MAX TEMP:  31; 6HR PCP:  0.02;

SPRINGDALE     LGT RAIN  30  34 100 NE10      30.41R FOG     WCI  21
$$

ARZ004-005-016-220100-
NORTH CENTRAL ARKANSAS

CITY           SKY/WX    TMP DP  RH WIND       PRES   REMARKS
BATESVILLE     RAIN      39  37  92 VRB7      30.37R
6HR MIN TEMP:  39; 6HR MAX TEMP:  40; 6HR PCP:  0.45;

FLIPPIN        MIX PCPN  32  30  92 N12G17    30.43R FOG     WCI  23
6HR MIN TEMP:  32; 6HR MAX TEMP:  35; 6HR PCP:  0.08;

MTN HOME       FRZ RAIN  31  31 100 N8        30.40S FOG     WCI  23
6HR MIN TEMP:  31; 6HR MAX TEMP:  34; 6HR PCP:  0.08;

$$

ARZ040-041-220100-
WEST CENTRAL ARKANSAS

CITY           SKY/WX    TMP DP  RH WIND       PRES   REMARKS
MENA           CLOUDY    41  41 100 NE6       30.31S
MOUNT IDA      RAIN      44  44 100 VRB7      30.29R FOG
6HR MIN TEMP:  44; 6HR MAX TEMP:  47; 6HR PCP:  0.41;

$$

ARZ009-017-025-026-028-220100-
NORTHEAST ARKANSAS

CITY           SKY/WX    TMP DP  RH WIND       PRES   REMARKS
JONESBORO      LGT RAIN  39  39 100 NE22G29   30.31F
6HR MIN TEMP:  39; 6HR MAX TEMP:  43; 6HR PCP:  0.43;

NEWPORT        LGT RAIN  40  39  97 NE14G24   30.34R
6HR MIN TEMP:  40; 6HR MAX TEMP:  42; 6HR PCP:  0.29;

WALNUT RIDGE   MIX PCPN  37  35  92 NE15      30.38F
6HR MIN TEMP:  37; 6HR MAX TEMP:  40; 6HR PCP:  0.35;

BLYTHEVILLE    LGT RAIN  43  50 100 NE12      30.36F
6HR MIN TEMP:  40; 6HR MAX TEMP:  43; 6HR PCP:  0.45;

$$

ARZ022-023-033-042-044-220100-
CENTRAL ARKANSAS

CITY           SKY/WX    TMP DP  RH WIND       PRES   REMARKS
LITTLE ROCK    LGT RAIN  44  44 100 NE10      30.26R
6HR MIN TEMP:  43; 6HR MAX TEMP:  44; 6HR PCP:  0.46;

N LITTLE ROCK    N/A     42  41  99 NE10      30.24R
6HR MIN TEMP:  41; 6HR MAX TEMP:  43;

JACKSONVILLE   LGT RAIN  44  43  99 NE8       30.28R
6HR MIN TEMP:  43; 6HR MAX TEMP:  44; 6HR PCP:  0.42;

SEARCY         RAIN      42  42 100 NE14      30.31R
6HR MIN TEMP:  42; 6HR MAX TEMP:  43; 6HR PCP:  0.36;

HOT SPRINGS    HVY RAIN  47  47 100 N9G17     30.29R FOG
6HR MIN TEMP:  45; 6HR MAX TEMP:  48; 6HR PCP:  0.61;

RUSSELLVILLE   LGT RAIN  41  39  93 NW10G20   30.36R
6HR MIN TEMP:  40; 6HR MAX TEMP:  43; 6HR PCP:  0.33;

CLINTON        LGT RAIN  39  36  87 N9        30.34S
$$

ARZ036-220100-
EAST ARKANSAS

CITY           SKY/WX    TMP DP  RH WIND       PRES   REMARKS
WEST MEMPHIS   RAIN      45  50 100 E13       30.31S
6HR MIN TEMP:  44; 6HR MAX TEMP:  45; 6HR PCP:  0.50;

$$

ARZ050-053-066-070-073-220100-
SOUTHWEST ARKANSAS

CITY           SKY/WX    TMP DP  RH WIND       PRES   REMARKS
ARKADELPHIA    RAIN      51  50  96 NE8       30.22R
6HR MIN TEMP:  47; 6HR MAX TEMP:  51; 6HR PCP:  0.64;

CAMDEN         HVY RAIN  52  50  93 E10G22    30.15F
TEXARKANA      HVY RAIN  50  50 100 N14       30.25R FOG
6HR MIN TEMP:  50; 6HR MAX TEMP:  55; 6HR PCP:  0.84;

EL DORADO      RAIN      54  54 100 E23G31    30.13F
6HR MIN TEMP:  53; 6HR MAX TEMP:  55; 6HR PCP:  1.47;

DE QUEEN       RAIN      46  46 100 N7        30.25F FOG
6HR MIN TEMP:  45; 6HR MAX TEMP:  52;

$$

ARZ056-057-069-220100-
SOUTHEAST ARKANSAS

CITY           SKY/WX    TMP DP  RH WIND       PRES   REMARKS
PINE BLUFF     HVY RAIN  49  48  97 E10       30.23F FOG
6HR MIN TEMP:  47; 6HR MAX TEMP:  49; 6HR PCP:  1.18;

STUTTGART      RAIN      47  46  97 NE12      30.26R
6HR MIN TEMP:  45; 6HR MAX TEMP:  47; 6HR PCP:  0.83;

MONTICELLO     RAIN      53  50  89 E9G25     30.22S
6HR MIN TEMP:  51; 6HR MAX TEMP:  53; 6HR PCP:  1.38;


$$





USA.gov is the U.S. government's official web portal to all federal, state and local government web resources and services.